Back to catalog

STARLINK-37465

AliveCommunicationsSSO
NORAD 68847·PAYLOAD·🇺🇸 United States

Launched Apr 26, 2026 from Vandenberg Space Force Base

Loading…

Next Passes (next 24 hours)

TLE

FreshSource: CelesTrak SupGP

Epoch: Sep 14, 2026, 22:26 UTC

1 68847C 26094J   26257.93520833  .00046825  00000+0  14537-2 0  2572
2 68847  97.2830 271.1158 0001525  87.5256 261.7123 15.33412110    19

Track STARLINK-37465 in real time with AllMySat

Download on the App Store